Flag for Sudan Weather past 2 weeks in Port Sudan, Sudan

Now
97 °F

Passing clouds.


Feels Like: 100 °F
Forecast: 85 / 100 °F
Wind: 12 mph from Southwest

Location: Jeddah King Abdul Aziz International Airport

Current Time: Jul 25, 2014 at 2:41:12 PM

Latest Report: Jul 25, 2014 at 2:00 PM


Visibility: N/A

Pressure: 29.68 "Hg

Humidity: 37%

Dew point: 66 °F

Location of Port SudanLocation

Historic Weather in Port Sudan — Graph

°F

Port Sudan temperature yesterday

Maximum temperature yesterday: 102 °F (at 12:00 PM)
Minimum temperature yesterday: 88 °F (at 6:00 AM)
Average temperature yesterday: 95 °F

Past Weeks' High & Low Weather Summary

 TemperatureHumidityPressure
High106 °F (Jul 12, 1:00 PM)89% (Jul 13, 6:00 AM)29.77 "Hg (Jul 13, 6:00 AM)
Low81 °F (Jul 22, 6:00 AM)13% (Jul 12, 2:00 PM)29.50 "Hg (Jul 14, 4:00 PM)
Average93 °F46%29.65 "Hg
* Reported Jul 10 1:00 PM — Jul 25 1:00 PM, Port Sudan, Weather by CustomWeather, © 2014

Note: Actual official high and low records may vary slightly from our data, if they occured in-between our weather recording intervals... More about our weather records

Advertising

Port Sudan weather history for previous 24 hours

 ConditionsComfort  
Time TempWeatherWind HumidityBarometerVisibility
1:00 PM
Jul 25
97 °FPassing clouds.16 mph34%29.68 "HgN/A
12:00 PM99 °FPassing clouds.12 mph31%29.68 "HgN/A
11:00 AM100 °FPassing clouds.9 mph27%29.68 "HgN/A
10:00 AM97 °FPassing clouds.5 mph32%29.71 "HgN/A
9:00 AM95 °FSunny.3 mph34%29.68 "Hg10 mi
8:00 AM91 °FSunny.6 mph41%29.68 "Hg10 mi
7:00 AM90 °FSunny.5 mph52%29.65 "Hg10 mi
6:00 AM86 °FSunny.3 mph62%29.65 "Hg10 mi
5:00 AM88 °FClear.3 mph62%29.65 "Hg10 mi
4:00 AM88 °FPassing clouds.3 mph62%29.62 "HgN/A
3:00 AM88 °FPassing clouds.7 mph59%29.65 "HgN/A
2:00 AM91 °FPassing clouds.5 mph52%29.65 "HgN/A
1:00 AM93 °FPassing clouds.7 mph44%29.65 "HgN/A
12:00 AM93 °FPassing clouds.5 mph44%29.65 "HgN/A
11:00 PM
Jul 24
93 °FPassing clouds.7 mph44%29.68 "HgN/A
10:00 PM95 °FPassing clouds.12 mph39%29.68 "HgN/A
9:00 PM95 °FClear.9 mph39%29.65 "Hg10 mi
8:00 PM95 °FClear.7 mph34%29.65 "Hg10 mi
7:00 PM97 °FSunny.9 mph34%29.62 "Hg10 mi
6:00 PM99 °FSunny.12 mph35%29.59 "Hg10 mi
5:00 PM100 °FSunny.12 mph35%29.59 "Hg10 mi
4:00 PM100 °FSunny.12 mph37%29.62 "Hg10 mi
3:00 PM102 °FSunny.12 mph35%29.62 "Hg10 mi
2:00 PM102 °FSunny.14 mph37%29.62 "Hg10 mi
Weather by CustomWeather, © 2014

See weather overviewHow to use our weather pages